Regional Weather Roundup
Issued by NWS

Home | Current Version | Previous Version | Text Only | Print | Product List | Glossary On
Versions: 1 2 3 4 5 6 7 8 9 10 11 12 13 14 15 16 17 18 19 20 21 22 23 24 25 26 27 28
000
ASUS44 KBMX 172110
RWRAL

ALABAMA REGIONAL WEATHER ROUNDUP
NATIONAL WEATHER SERVICE BIRMINGHAM AL
400 PM CDT THU APR 17 2014

NOTE: "FAIR" INDICATES FEW OR NO CLOUDS BELOW 12,000 FEET
WITH NO SIGNIFICANT WEATHER AND/OR OBSTRUCTIONS TO VISIBILITY.

THE REMARK "TC" DENOTES TEMPERATURE IN DEGREES CELSIUS.

ALZ001>011-014-016>018-020-172200-
NORTH ALABAMA

CITY           SKY/WX    TMP DP  RH WIND       PRES   REMARKS
MUSCLE SHOALS  MOSUNNY   68  41  37 VRB3      30.25F
HUNTSVILLE     PTSUNNY   68  40  35 S7        30.25F
DECATUR        MOSUNNY   68  42  38 E6        30.26F
HALEYVILLE     FAIR      67  42  40 SE13      30.27F
GADSDEN        NOT AVBL
$$

ALZ012-013-022-023-030>036-040>044-172200-
WEST CENTRAL ALABAMA

CITY           SKY/WX    TMP DP  RH WIND       PRES   REMARKS
TUSCALOOSA     CLOUDY    69  48  47 CALM      30.22F
$$

ALZ015-024>027-033>036-040>044-172200-
CENTRAL ALABAMA

CITY           SKY/WX    TMP DP  RH WIND       PRES   REMARKS
BIRMINGHAM     PTSUNNY   69  43  38 S8        30.26F
MONTGOMERY     CLOUDY    70  51  51 E13G18    30.22F
SHELBY CO ARPT CLOUDY    69  46  43 VRB6      30.23F
MAXWELL AFB    CLOUDY    72  55  54 E9        30.21F
GREENVILLE     PTSUNNY   70  51  51 E9        30.19F
$$

ALZ019-021-028-029-037-038-045>048-172200-
EAST CENTRAL ALABAMA

CITY           SKY/WX    TMP DP  RH WIND       PRES   REMARKS
ANNISTON       PTSUNNY   68  45  43 S10       30.27F
ALEXANDER CITY PTSUNNY   71  44  37 E7        30.26F
AUBURN         PTSUNNY   63  46  55 E9G17     30.29F
$$

ALZ051>064-172200-
SOUTHWEST ALABAMA

CITY           SKY/WX    TMP DP  RH WIND       PRES   REMARKS
MOBILE         CLOUDY    70  57  63 E12       30.16F
BROOKLEY FIELD CLOUDY    70  57  63 SE5       30.17S
EVERGREEN      CLOUDY    72  53  51 E8        30.20F
$$

ALZ049-050-065>069-172200-
SOUTHEAST ALABAMA

CITY           SKY/WX    TMP DP  RH WIND       PRES   REMARKS
DOTHAN         CLOUDY    68  54  60 E10G20    30.24F
OZARK          CLOUDY    68  55  62 E10       30.20F
TROY           CLOUDY    69  51  52 E10       30.22F
EUFAULA        FAIR      70  51  51 E7G17     30.23F
$$



USA.gov is the U.S. government's official web portal to all federal, state and local government web resources and services.